Date String (YYYY-MM-DD hh:mm:ss) UTC,Instrument flags,Ambient pressure (hPa),Sample flow (lpm),Bypass flow (lpm),Sample temperature (°C),Ambient temperature (°C),ASC tube jacket temperature (°C),LED temperature (°C),Box temperature (°C),Sample RH (%),Span deviation,Mass concentration (μg/m³),Mass concentration (μg/m³),Mass concentration (μg/m³)
DateTimeUTC,F1_M11,P_M11,Q1_M11,Q2_M11,T1_M11,T2_M11,T3_M11,T4_M11,T5_M11,U1_M11,ZSPAN_M11,X2_M11,X0_M11,X1_M11
2023-05-14 19:00:00,,0841.8,5.01,0.00,29.2,27.6,00.0,37.5,30.7,28.7,0000.0,0002.16,0002.59,0001.93
2023-05-14 19:01:00,,0841.8,5.01,0.00,29.2,27.6,00.0,37.5,30.7,28.7,0000.0,0002.25,0002.79,0001.99
2023-05-14 19:02:00,,0841.8,4.99,0.00,29.2,27.6,00.0,37.5,30.8,29.0,0000.0,0002.27,0002.77,0002.03
2023-05-14 19:03:00,,0841.8,4.99,0.00,29.2,27.6,00.0,37.5,30.7,28.9,0000.0,0002.30,0002.81,0002.06
2023-05-14 19:04:00,,0841.8,5.01,0.00,29.2,27.6,00.0,37.5,30.8,28.1,0000.0,0002.27,0002.73,0002.05
2023-05-14 19:05:00,,0841.7,5.00,0.00,29.2,27.6,00.0,37.5,30.8,28.0,0000.0,0002.25,0002.71,0002.04
2023-05-14 19:06:00,,0841.7,5.00,0.00,29.2,27.6,00.0,37.5,30.8,28.3,0000.0,0002.23,0002.64,0002.04
2023-05-14 19:07:00,,0841.7,4.99,0.00,29.2,27.6,00.0,37.5,30.8,28.3,0000.0,0002.19,0002.56,0002.03
2023-05-14 19:08:00,,0841.8,4.99,0.00,29.2,27.6,00.0,37.5,30.8,28.4,0000.0,0002.17,0002.53,0002.01
2023-05-14 19:09:00,,0841.8,5.01,0.00,29.2,27.6,00.0,37.5,30.8,28.5,0000.0,0002.14,0002.48,0001.98
2023-05-14 19:10:00,,0841.8,5.01,0.00,29.2,27.6,00.0,37.5,30.8,28.5,0000.0,0002.08,0002.41,0001.94
2023-05-14 19:11:00,,0841.8,5.01,0.00,29.2,27.6,00.0,37.6,30.8,28.2,0000.0,0001.99,0002.24,0001.87
2023-05-14 19:12:00,,0841.8,5.00,0.00,29.2,27.6,00.0,37.6,30.8,28.4,0000.0,0001.93,0002.12,0001.81
2023-05-14 19:13:00,,0841.9,4.99,0.00,29.2,27.6,00.0,37.6,30.8,28.2,0000.0,0001.86,0002.02,0001.75
2023-05-14 19:14:00,,0841.8,4.99,0.00,29.2,27.6,00.0,37.6,30.8,27.5,0000.0,0001.79,0002.03,0001.68
2023-05-14 19:15:00,,0841.9,5.01,0.00,29.2,27.6,00.0,37.6,30.8,28.2,0000.0,0001.78,0002.53,0001.66
2023-05-14 19:16:00,,0841.9,5.00,0.00,29.2,27.6,00.0,37.6,30.8,28.2,0000.0,0001.77,0002.55,0001.65
2023-05-14 19:17:00,,0841.9,5.00,0.00,29.2,27.6,00.0,37.6,30.8,28.4,0000.0,0001.81,0002.66,0001.65
2023-05-14 19:18:00,,0841.9,5.01,0.00,29.2,27.6,00.0,37.6,30.8,28.4,0000.0,0001.84,0002.74,0001.66
2023-05-14 19:19:00,,0841.9,5.00,0.00,29.2,27.6,00.0,37.6,30.8,28.3,0000.0,0001.89,0002.95,0001.66
2023-05-14 19:20:00,,0841.9,4.99,0.00,29.2,27.6,00.0,37.6,30.8,28.1,0000.0,0001.91,0003.02,0001.66
2023-05-14 19:21:00,,0841.9,5.00,0.00,29.2,27.6,00.0,37.6,30.8,27.8,0000.0,0001.92,0003.04,0001.67
2023-05-14 19:22:00,,0842.0,5.00,0.00,29.2,27.6,00.0,37.6,30.8,27.7,0000.0,0001.97,0003.11,0001.70
2023-05-14 19:23:00,,0841.9,5.00,0.00,29.2,27.7,00.0,37.6,30.8,27.9,0000.0,0001.99,0003.09,0001.72
2023-05-14 19:24:00,,0842.0,5.00,0.00,29.2,27.7,00.0,37.6,30.8,28.0,0000.0,0002.00,0003.07,0001.74
2023-05-14 19:25:00,,0842.0,4.99,0.00,29.2,27.7,00.0,37.6,30.8,27.8,0000.0,0002.07,0003.09,0001.79
2023-05-14 19:26:00,,0842.0,5.00,0.00,29.2,27.6,00.0,37.6,30.8,27.6,0000.0,0002.10,0002.54,0001.83
2023-05-14 19:27:00,,0841.9,5.00,0.00,29.2,27.6,00.0,37.6,30.8,27.6,0000.0,0002.10,0002.51,0001.85
2023-05-14 19:28:00,,0841.9,4.99,0.00,29.2,27.6,00.0,37.6,30.8,27.7,0000.0,0002.05,0002.39,0001.84
2023-05-14 19:29:00,,0841.9,5.00,0.00,29.2,27.6,00.0,37.6,30.8,27.7,0000.0,0002.00,0002.29,0001.82
2023-05-14 19:30:00,,0841.9,4.99,0.00,29.2,27.6,00.0,37.6,30.8,28.1,0000.0,0001.97,0002.14,0001.81
2023-05-14 19:31:00,,0841.9,5.00,0.00,29.2,27.6,00.0,37.6,30.8,28.3,0000.0,0001.98,0002.12,0001.81
2023-05-14 19:32:00,,0841.9,5.01,0.00,29.2,27.6,00.0,37.6,30.8,28.1,0000.0,0002.00,0002.17,0001.84
2023-05-14 19:33:00,,0842.0,5.01,0.00,29.2,27.7,00.0,37.6,30.8,28.2,0000.0,0002.00,0002.16,0001.85
2023-05-14 19:34:00,,0842.0,5.00,0.00,29.2,27.7,00.0,37.6,30.8,27.6,0000.0,0001.99,0002.13,0001.85
2023-05-14 19:35:00,,0842.0,5.00,0.00,29.2,27.7,00.0,37.6,30.8,27.8,0000.0,0002.00,0002.16,0001.87
2023-05-14 19:36:00,,0842.0,5.00,0.00,29.2,27.7,00.0,37.6,30.8,28.0,0000.0,0001.99,0002.15,0001.86
2023-05-14 19:37:00,,0842.0,5.00,0.00,29.2,27.7,00.0,37.6,30.8,27.6,0000.0,0001.98,0002.13,0001.88
2023-05-14 19:38:00,,0842.0,5.01,0.00,29.2,27.7,00.0,37.6,30.8,27.8,0000.0,0001.99,0002.13,0001.89
2023-05-14 19:39:00,,0842.0,5.00,0.00,29.3,27.7,00.0,37.6,30.8,27.7,0000.0,0002.01,0002.15,0001.91
2023-05-14 19:40:00,,0842.0,5.00,0.00,29.3,27.7,00.0,37.6,30.8,27.6,0000.0,0002.05,0002.19,0001.95
2023-05-14 19:41:00,,0841.9,5.00,0.00,29.3,27.7,00.0,37.6,30.8,27.1,0000.0,0002.08,0002.18,0001.99
2023-05-14 19:42:00,,0842.0,4.99,0.00,29.3,27.8,00.0,37.6,30.8,27.6,0000.0,0002.10,0002.26,0002.03
2023-05-14 19:43:00,,0841.9,4.99,0.00,29.3,27.8,00.0,37.6,30.8,28.7,0000.0,0002.12,0002.28,0002.03
2023-05-14 19:44:00,,0841.9,5.00,0.00,29.3,27.8,00.0,37.6,30.9,28.1,0000.0,0002.13,0002.30,0002.04
2023-05-14 19:45:00,,0841.9,5.00,0.00,29.3,27.8,00.0,37.6,30.9,27.4,0000.0,0002.15,0002.32,0002.06
2023-05-14 19:46:00,,0841.8,5.01,0.00,29.3,27.8,00.0,37.6,30.9,28.0,0000.0,0002.16,0002.38,0002.06
2023-05-14 19:47:00,,0841.8,5.01,0.00,29.3,27.8,00.0,37.6,30.9,27.4,0000.0,0002.17,0002.39,0002.06
2023-05-14 19:48:00,,0841.8,5.00,0.00,29.3,27.8,00.0,37.6,30.9,27.2,0000.0,0002.19,0002.39,0002.08
2023-05-14 19:49:00,,0841.8,5.00,0.00,29.3,27.8,00.0,37.6,30.9,27.8,0000.0,0002.25,0002.48,0002.12
2023-05-14 19:50:00,,0841.8,5.00,0.00,29.3,27.8,00.0,37.7,30.9,28.0,0000.0,0002.32,0002.57,0002.18
2023-05-14 19:51:00,,0841.8,5.01,0.00,29.3,27.8,00.0,37.7,30.9,27.9,0000.0,0002.39,0002.67,0002.24
2023-05-14 19:52:00,,0841.8,4.99,0.00,29.3,27.7,00.0,37.7,30.9,27.9,0000.0,0002.42,0002.72,0002.25
2023-05-14 19:53:00,,0841.8,4.99,0.00,29.3,27.7,00.0,37.7,30.8,28.2,0000.0,0002.43,0002.72,0002.25
2023-05-14 19:54:00,,0841.8,5.00,0.00,29.3,27.7,00.0,37.7,30.8,27.6,0000.0,0002.44,0002.68,0002.26
2023-05-14 19:55:00,,0841.8,5.00,0.00,29.3,27.6,00.0,37.7,30.8,27.5,0000.0,0002.47,0002.69,0002.29
2023-05-14 19:56:00,,0841.8,5.01,0.00,29.3,27.6,00.0,37.7,30.8,27.8,0000.0,0002.49,0002.70,0002.31
2023-05-14 19:57:00,,0841.8,5.01,0.00,29.2,27.6,00.0,37.7,30.8,27.7,0000.0,0002.52,0002.69,0002.34
2023-05-14 19:58:00,,0841.8,5.01,0.00,29.2,27.6,00.0,37.7,30.8,27.6,0000.0,0002.58,0002.77,0002.38
2023-05-14 19:59:00,,0841.7,5.00,0.00,29.2,27.6,00.0,37.7,30.8,27.9,0000.0,0002.58,0002.77,0002.39
